THA379 VTBS-RJTT

Flight info

Callsign THA379
Flight time N/A
Altitude 33000
Route LIPLI1G LIPLI Y16 BUTRA A1 PAPRA/K0869F330 A1 IKELA/N0467F330 DCT MORTU/N0464F350 DCT NOBAD DCT KAPLI G86 HCN J7 PICHU Q13 IGURU Y57 SUKBO Y571 BILLY Y21 AKSEL
Aircraft A21N/M-SDE3FGHIRWY/LB1

Departure

Time 2026-05-05 21:10
Airport Suvarnabhumi Airport (VTBS)

Arrival

Time N/A
Airport Tokyo Haneda International Airport (RJTT)
Time Latitude Longitude Altitude Speed Heading
2026-05-05 20:32 13.69674 100.74533 8 ft 0 kts 283°
2026-05-05 20:57 13.69671 100.74545 8 ft 2 kts 291°
2026-05-05 20:58 13.69664 100.74558 8 ft 2 kts 301°
2026-05-05 20:58 13.69655 100.74571 8 ft 2 kts 311°
2026-05-05 20:58 13.69644 100.74582 9 ft 2 kts 321°
2026-05-05 20:58 13.69632 100.74591 9 ft 2 kts 332°
2026-05-05 20:59 13.69618 100.74597 9 ft 2 kts 341°
2026-05-05 20:59 13.69603 100.74601 8 ft 2 kts 351°
2026-05-05 20:59 13.69588 100.74603 9 ft 2 kts
2026-05-05 20:59 13.69573 100.74601 9 ft 2 kts 11°
2026-05-05 21:00 13.69564 100.74599 9 ft 0 kts 16°
2026-05-05 21:04 13.69568 100.74600 8 ft 1 kts 16°
2026-05-05 21:05 13.69581 100.74604 9 ft 2 kts 16°
2026-05-05 21:05 13.69603 100.74610 8 ft 3 kts 16°
2026-05-05 21:05 13.69633 100.74619 8 ft 5 kts 16°
2026-05-05 21:05 13.69672 100.74631 8 ft 6 kts 16°
2026-05-05 21:06 13.69719 100.74643 8 ft 7 kts 12°
2026-05-05 21:06 13.69776 100.74651 8 ft 8 kts
2026-05-05 21:06 13.69823 100.74615 8 ft 9 kts 291°
2026-05-05 21:06 13.69843 100.74545 9 ft 10 kts 285°
2026-05-05 21:07 13.69864 100.74468 8 ft 11 kts 286°
2026-05-05 21:07 13.69876 100.74422 8 ft 1 kts 285°
2026-05-05 21:07 13.69881 100.74405 8 ft 3 kts 285°
2026-05-05 21:07 13.69888 100.74380 8 ft 4 kts 285°
2026-05-05 21:08 13.69897 100.74345 8 ft 5 kts 285°
2026-05-05 21:08 13.69906 100.74313 8 ft 0 kts 285°
2026-05-05 21:09 13.69908 100.74305 8 ft 3 kts 285°
2026-05-05 21:09 13.69915 100.74233 8 ft 29 kts 250°
2026-05-05 21:10 13.69449 100.74072 9 ft 110 kts 194°
2026-05-05 21:10 13.68459 100.73818 9 ft 175 kts 194°
2026-05-05 21:10 13.67164 100.73469 411 ft 196 kts 194°
2026-05-05 21:10 13.65770 100.73091 971 ft 216 kts 194°
2026-05-05 21:11 13.64167 100.72657 1217 ft 257 kts 194°
2026-05-05 21:11 13.62287 100.72148 1524 ft 293 kts 194°
2026-05-05 21:11 13.60188 100.71580 1821 ft 327 kts 194°
2026-05-05 21:11 13.57840 100.70943 2124 ft 358 kts 194°
2026-05-05 21:12 13.55361 100.70267 2531 ft 380 kts 194°
2026-05-05 21:12 13.52789 100.69563 3621 ft 381 kts 194°
2026-05-05 21:12 13.50211 100.68855 4687 ft 382 kts 194°
2026-05-05 21:12 13.47654 100.68154 5718 ft 382 kts 194°
2026-05-05 21:13 13.45046 100.67441 6769 ft 382 kts 193°
2026-05-05 21:13 13.42475 100.66737 7791 ft 381 kts 194°
2026-05-05 21:13 13.39864 100.66294 8758 ft 378 kts 185°
2026-05-05 21:13 13.37346 100.65543 9723 ft 379 kts 205°
2026-05-05 21:14 13.35210 100.63949 10665 ft 378 kts 226°
2026-05-05 21:14 13.33746 100.61716 11579 ft 376 kts 246°
2026-05-05 21:14 13.33127 100.59156 12462 ft 374 kts 266°
2026-05-05 21:14 13.33406 100.56535 13340 ft 371 kts 287°
2026-05-05 21:15 13.34552 100.54186 14206 ft 367 kts 307°
2026-05-05 21:15 13.36435 100.52401 15052 ft 364 kts 328°
2026-05-05 21:15 13.38741 100.51444 15860 ft 360 kts 349°
2026-05-05 21:15 13.41256 100.51330 16382 ft 367 kts
2026-05-05 21:16 13.43862 100.51869 16175 ft 389 kts 14°
2026-05-05 21:16 13.46573 100.52562 16060 ft 402 kts 14°
2026-05-05 21:16 13.49315 100.53265 16004 ft 402 kts 14°
2026-05-05 21:16 13.52026 100.53949 15939 ft 402 kts 14°
2026-05-05 21:17 13.55516 100.54814 15852 ft 401 kts 14°
2026-05-05 21:17 13.60923 100.56142 15828 ft 401 kts 14°
2026-05-05 21:17 13.66560 100.58096 15807 ft 401 kts 28°
2026-05-05 21:17 13.71064 100.61448 15819 ft 401 kts 40°
2026-05-05 21:18 13.74694 100.65570 15810 ft 402 kts 63°
2026-05-05 21:18 13.75586 100.71124 15828 ft 403 kts 90°
2026-05-05 21:18 13.75461 100.76715 15823 ft 402 kts 90°
2026-05-05 21:18 13.75408 100.82433 15822 ft 403 kts 90°
2026-05-05 21:19 13.75387 100.88112 15828 ft 404 kts 89°
2026-05-05 21:19 13.75367 100.93787 15825 ft 404 kts 90°
2026-05-05 21:19 13.75344 100.99536 15832 ft 404 kts 90°
2026-05-05 21:19 13.75319 101.05227 16399 ft 413 kts 89°
2026-05-05 21:20 13.75291 101.11100 17662 ft 416 kts 89°
2026-05-05 21:20 13.75265 101.17003 18709 ft 422 kts 90°
2026-05-05 21:20 13.75795 101.23034 19699 ft 427 kts 75°
2026-05-05 21:20 13.78256 101.28522 20613 ft 432 kts 59°
2026-05-05 21:21 13.81350 101.33796 21475 ft 438 kts 59°
2026-05-05 21:21 13.84466 101.39124 22295 ft 444 kts 59°
2026-05-05 21:21 13.87618 101.44572 23115 ft 449 kts 59°
2026-05-05 21:21 13.90817 101.50125 23897 ft 454 kts 59°
2026-05-05 21:22 13.94013 101.55683 24646 ft 459 kts 59°
2026-05-05 21:22 13.97240 101.61299 25294 ft 464 kts 59°
2026-05-05 21:22 14.00536 101.67039 25959 ft 468 kts 59°
2026-05-05 21:22 14.03786 101.72707 26949 ft 464 kts 59°
2026-05-05 21:23 14.07007 101.78328 27883 ft 462 kts 59°
2026-05-05 21:23 14.10225 101.83947 28772 ft 460 kts 59°
2026-05-05 21:23 14.13457 101.89595 29642 ft 459 kts 59°
2026-05-05 21:23 14.15414 101.93120 30164 ft 459 kts 61°
2026-05-05 21:24 14.16829 101.96027 30584 ft 459 kts 64°
2026-05-05 21:24 14.18106 101.99054 31017 ft 458 kts 68°
2026-05-05 21:24 14.19224 102.02160 31437 ft 458 kts 71°
2026-05-05 21:24 14.20222 102.05274 31779 ft 460 kts 71°
2026-05-05 21:25 14.21221 102.08449 32073 ft 462 kts 71°
2026-05-05 21:25 14.22213 102.11607 32363 ft 464 kts 71°
2026-05-05 21:25 14.23215 102.14796 32671 ft 466 kts 71°
2026-05-05 21:25 14.24224 102.18003 32935 ft 468 kts 71°
2026-05-05 21:26 14.26242 102.24403 32937 ft 469 kts 71°
2026-05-05 21:26 14.28263 102.30812 32927 ft 469 kts 71°
2026-05-05 21:27 14.30297 102.37266 32909 ft 469 kts 71°
2026-05-05 21:27 14.32309 102.43657 32892 ft 469 kts 71°
2026-05-05 21:28 14.34338 102.50106 32877 ft 469 kts 71°
2026-05-05 21:28 14.36357 102.56536 32866 ft 470 kts 71°
2026-05-05 21:29 14.38475 102.62958 32864 ft 470 kts 69°
2026-05-05 21:29 14.40761 102.69283 32864 ft 469 kts 68°
2026-05-05 21:30 14.43050 102.75590 32859 ft 469 kts 69°
2026-05-05 21:30 14.45341 102.81928 32855 ft 470 kts 69°
2026-05-05 21:31 14.47644 102.88304 32852 ft 470 kts 69°
2026-05-05 21:31 14.49922 102.94626 32853 ft 469 kts 69°
2026-05-05 21:32 14.52203 103.00958 32856 ft 469 kts 68°
2026-05-05 21:32 14.54500 103.07340 32856 ft 470 kts 68°
2026-05-05 21:33 14.56778 103.13676 32856 ft 470 kts 69°
2026-05-05 21:33 14.59051 103.20007 32855 ft 470 kts 69°
2026-05-05 21:34 14.61331 103.26360 32854 ft 470 kts 69°
2026-05-05 21:34 14.63607 103.32712 32855 ft 470 kts 69°
2026-05-05 21:35 14.65891 103.39090 32855 ft 469 kts 69°
2026-05-05 21:35 14.68159 103.45431 32856 ft 469 kts 69°
2026-05-05 21:36 14.70287 103.51386 32856 ft 469 kts 69°
2026-05-05 21:36 14.72549 103.57719 32855 ft 469 kts 69°
2026-05-05 21:37 14.74808 103.64056 32853 ft 469 kts 69°
2026-05-05 21:37 14.77074 103.70416 32853 ft 469 kts 69°
2026-05-05 21:38 14.79328 103.76749 32853 ft 469 kts 69°
2026-05-05 21:38 14.81564 103.83096 32855 ft 469 kts 69°
2026-05-05 21:39 14.83766 103.89468 32853 ft 469 kts 69°
2026-05-05 21:39 14.85967 103.95843 32856 ft 469 kts 69°
2026-05-05 21:40 14.88174 104.02235 33105 ft 472 kts 69°
2026-05-05 21:40 14.89265 104.05400 33602 ft 469 kts 69°
2026-05-05 21:40 14.90367 104.08596 34122 ft 466 kts 69°
2026-05-05 21:41 14.91453 104.11747 34570 ft 465 kts 69°
2026-05-05 21:41 14.92547 104.14918 34895 ft 465 kts 69°
2026-05-05 21:41 14.93648 104.18113 35117 ft 468 kts 69°
2026-05-05 21:41 14.94744 104.21294 35316 ft 471 kts 69°
2026-05-05 21:42 14.95850 104.24507 35516 ft 473 kts 69°
2026-05-05 21:42 14.96969 104.27758 35716 ft 474 kts 69°
2026-05-05 21:42 14.98075 104.30974 35849 ft 477 kts 69°
2026-05-05 21:42 14.99195 104.34230 35850 ft 478 kts 69°
2026-05-05 21:43 15.01439 104.40766 35849 ft 478 kts 70°
2026-05-05 21:43 15.03683 104.47311 35849 ft 478 kts 70°
2026-05-05 21:44 15.05915 104.53825 35847 ft 478 kts 70°
2026-05-05 21:44 15.08153 104.60365 35850 ft 478 kts 70°
2026-05-05 21:45 15.10381 104.66878 35851 ft 478 kts 70°
2026-05-05 21:45 15.12621 104.73436 35854 ft 478 kts 70°
2026-05-05 21:46 15.14527 104.79022 35858 ft 478 kts 70°